Location: Peterborough
(44.3091°N, 78.3197°W)
Time: 01:03:24
(UTC-04:00)

Vanguard 1 Rocket - Pass Details

Date: 24 March 2023
Orbit: 655 x 4220 km, 34.3° (Epoch: 02 June)

Event Time Altitude Azimuth Distance (km) Brightness Sun altitude
Rises 00:59:10 0° 242° (WSW) 8,235 12.1 -44.1°
Reaches altitude 10° 01:05:33 10° 239° (WSW) 6,891 11.6 -44.3°
Enters shadow 01:08:31 15° 236° (WSW) 6,234 11.3 -44.3°
Exits shadow 01:37:03 - 96° (E) 4,281 10.8 -44.2°
Sets 01:38:04 0° 95° (E) 4,554 11.0 -44.2°
